Regional Weather Roundup
Issued by NWS

Home | Current Version | Previous Version | Text Only | Print | Product List | Glossary On
Versions: 1 2 3 4 5 6 7 8 9 10 11 12 13 14 15 16 17 18 19 20 21 22 23 24 25 26 27 28 29 30 31 32 33 34 35 36 37 38 39 40 41 42 43 44 45 46 47 48 49 50
000
ASUS43 KBIS 271310
RWRND

NORTH DAKOTA REGIONAL WEATHER ROUNDUP
NATIONAL WEATHER SERVICE BISMARCK ND
800 AM CDT THU AUG 27 2015

NOTE: "FAIR" INDICATES FEW OR NO CLOUDS BELOW 12,000 FEET WITH NO
SIGNIFICANT WEATHER AND/OR OBSTRUCTIONS TO VISIBILITY.


NDZ001>003-009>011-017-271400-
NORTHWEST NORTH DAKOTA

CITY           SKY/WX    TMP DP  RH WIND       PRES   REMARKS
WILLISTON      PTCLDY    58  55  90 N3        29.98S
MINOT          PTCLDY    55  52  89 N3        29.98S FOG
MINOT AFB      PTCLDY    56  56 100 CALM      29.98R
$$

NDZ018>021-031>035-040>046-271400-
SOUTHWEST NORTH DAKOTA

CITY           SKY/WX    TMP DP  RH WIND       PRES   REMARKS
BISMARCK       MOCLDY    61  59  93 CALM      29.96F
DICKINSON      FOG       61  59  93 E3        29.99S VSB 1/2
GARRISON         N/A     63  60  90 CALM      29.97S
HETTINGER ARPT CLOUDY    57  55  93 CALM      30.01R
$$

NDZ004>008-012>016-024-026-027-054-271400-
NORTHEAST NORTH DAKOTA

CITY           SKY/WX    TMP DP  RH WIND       PRES   REMARKS
GRAND FORKS    MOSUNNY   54  51  90 SE6       29.99F
GRND FRKS AFB  MOSUNNY   55  52  91 CALM      29.99F
DEVILS LAKE    MOSUNNY   57  52  82 CALM      29.98S
$$

NDZ022-023-025-028>030-036>039-047>053-271400-
SOUTHEAST NORTH DAKOTA

CITY           SKY/WX    TMP DP  RH WIND       PRES   REMARKS
FARGO          MOSUNNY   61  55  81 SE7       29.99F
JAMESTOWN      PTSUNNY   59  57  93 E5        29.97F
$$



USA.gov is the U.S. government's official web portal to all federal, state and local government web resources and services.